Flag for Germany Weather past 2 weeks in Görlitz, Saxony, Germany

Now
68 °F

Passing clouds.


Feels Like: 68 °F
Forecast: 55 / 72 °F
Wind: 3 mph from East

Location: Goerlitz

Current Time: Sep 17, 2014 at 7:51:31 PM

Latest Report: Sep 17, 2014 at 7:00 PM


Visibility: 11 mi

Pressure: 30.00 "Hg

Humidity: 72%

Dew point: 59 °F

Location of GörlitzLocation

Historic Weather in Görlitz — Graph

°F

Görlitz temperature yesterday

Maximum temperature yesterday: 71 °F (at 4:00 PM)
Minimum temperature yesterday: 55 °F (at 5:00 AM)
Average temperature yesterday: 63 °F

Past Weeks' High & Low Weather Summary

 TemperatureHumidityPressure
High79 °F (Sep 7, 3:00 PM)100% (Sep 15, 7:00 AM)30.26 "Hg (Sep 15, 7:00 AM)
Low52 °F (Sep 17, 7:00 AM)50% (Sep 7, 3:00 PM)29.87 "Hg (Sep 6, 4:00 PM)
Average62 °F87%30.05 "Hg
* Reported Sep 2 6:00 PM — Sep 17 6:00 PM, Görlitz, Weather by CustomWeather, © 2014

Note: Actual official high and low records may vary slightly from our data, if they occured in-between our weather recording intervals... More about our weather records

Advertising

Görlitz weather history for previous 24 hours

 ConditionsComfort  
Time TempWeatherWind HumidityBarometerVisibility
6:00 PM
Sep 17
71 °FPassing clouds.5 mph67%30.00 "Hg22 mi
5:00 PM72 °FPartly sunny.6 mph62%30.00 "Hg25 mi
4:00 PM72 °FOvercast.3 mph62%30.00 "Hg10 mi
3:00 PM72 °FScattered clouds.5 mph55%30.01 "Hg25 mi
2:00 PM73 °FPassing clouds.5 mph57%30.02 "Hg28 mi
1:00 PM72 °FSunny.5 mph50%30.03 "Hg28 mi
12:00 PM71 °FSunny.3 mph52%30.04 "Hg28 mi
11:00 AM69 °FPassing clouds.2 mph62%30.06 "Hg28 mi
10:00 AM65 °FPassing clouds.2 mph74%30.07 "Hg22 mi
9:00 AM59 °FPassing clouds.1 mph90%30.08 "Hg16 mi
8:00 AM53 °FFog.1 mph99%30.08 "Hg9 mi
7:00 AM52 °FFog.2 mph99%30.09 "Hg5 mi
6:00 AM53 °FFog.1 mph98%30.08 "Hg4 mi
5:00 AM54 °FFog.1 mph98%30.08 "Hg0 mi
4:00 AM55 °FFog.2 mph97%30.09 "Hg5 mi
3:00 AM56 °FClear.1 mph95%30.09 "Hg5 mi
2:00 AM56 °FClear.3 mph95%30.09 "Hg6 mi
1:00 AM58 °FClear.1 mph95%30.09 "Hg7 mi
12:00 AM59 °FPassing clouds.2 mph91%30.09 "Hg7 mi
11:00 PM
Sep 16
62 °FPassing clouds.1 mph87%30.09 "Hg7 mi
10:00 PM64 °FPassing clouds.2 mph81%30.09 "Hg8 mi
9:00 PM65 °FPassing clouds.2 mph76%30.09 "Hg9 mi
8:00 PM64 °FOvercast.2 mph80%30.08 "Hg7 mi
7:00 PM67 °FOvercast.5 mph71%30.06 "Hg9 mi
Weather by CustomWeather, © 2014

See weather overviewHow to use our weather pages